User: anonymous   Login
Location: Chuathbaluk
(61.5726°N, 159.2454°W)
Time: 02:44:50
(UTC+00:00)
Language:

SR - Orbit

View from above orbital plane
View from above orbital plane
View from above satellite
View from above satellite

Ground track
Ground track

The orbit data is extracted from the following two-line orbital elements,

1 00046U 60007B   21209.49604739  .00000100  00000-0  42585-4 0  9998
2 00046  66.6907  29.2628 0211536 190.5274 169.1374 14.49419391197958
Epoch (UTC): 28 July 2021 11:54:18
Eccentricity: 0.0211536
inclination: 66.6907°
perigee height: 577 km
apogee height: 878 km
right ascension of ascending node: 29.2628°
argument of perigee: 190.5274°
revolutions per day: 14.49419391
mean anomaly at epoch: 169.1374°
orbit number at epoch: 19795

The dashed part of the orbit path shows where the satellite is in the earth's shadow,  

DLR